Regional Weather Roundup
Issued by NWS

Home | Current Version | Previous Version | Text Only | Print | Product List | Glossary Off
Versions: 1 2 3 4 5 6 7 8 9 10 11 12 13 14 15 16 17 18 19 20 21 22 23 24 25 26 27 28 29 30 31 32 33 34 35 36 37 38 39 40 41 42 43 44 45 46 47 48 49 50

000
ASUS43 KFSD 290902
RWRSD

WEATHER ROUNDUP FOR SOUTH DAKOTA
NATIONAL WEATHER SERVICE SIOUX FALLS SD
400 AM CDT TUE JUL 29 2014

NOTE: "FAIR" INDICATES FEW OR NO CLOUDS BELOW 12,000 FEET WITH NO
SIGNIFICANT WEATHER AND/OR OBSTRUCTIONS TO VISIBILITY.


SDZ001>005-009-010-012>017-291000-
NORTHWEST AND NORTH CENTRAL SOUTH DAKOTA

CITY           SKY/WX    TMP DP  RH WIND       PRES   REMARKS
BUFFALO          N/A     58  51  78 SE5       30.19F
FAITH            N/A     59  50  72 S8        30.24S
MOBRIDGE       CLEAR     55  52  89 SE6       30.21F
$$

SDZ012>016-024>037-041>051-057-063-072>074-291000-
SOUTHWEST AND SOUTH CENTRAL SOUTH DAKOTA

CITY           SKY/WX    TMP DP  RH WIND       PRES   REMARKS
RAPID CTY ARPT CLEAR     52  49  89 NE3       30.26F
PIERRE         CLEAR     52  50  93 NE5       30.21F
CUSTER         CLEAR     54  46  74 N5        30.35F
ELLSWORTH AFB  CLEAR     60  50  69 S3        30.26F
PHILIP         CLEAR     55  48  77 CALM      30.22F
PINE RIDGE     PTCLDY    62  52  69 E9        30.23F
WINNER         FAIR      57  50  77 SE3       30.23S
$$

SDZ004>011-016>023-039-040-291000-
NORTHEAST SOUTH DAKOTA

CITY           SKY/WX    TMP DP  RH WIND       PRES   REMARKS
ABERDEEN       CLEAR     47  45  93 CALM      30.22S
WATERTOWN      CLEAR     51  49  92 CALM      30.21F
SISSETON         N/A     51  50  96 CALM      30.19S
$$

SDZ017-020-022-023-036>040-048>070-291000-
SOUTHEAST SOUTH DAKOTA

CITY           SKY/WX    TMP DP  RH WIND       PRES   REMARKS
SIOUX FALLS    CLEAR     53  51  93 CALM      30.21F
HURON          PTCLDY    51  49  92 CALM      30.21F
CHAMBERLAIN    CLEAR     50  47  91 CALM      30.22F
MITCHELL       PTCLDY    55  52  89 W3        30.22S
YANKTON        CLEAR     54  50  87 CALM      30.21S
$$

ABBREVIATIONS USED IN REMARKS
   TC - TEMPERATURE IN CELSIUS
  WCI - WIND CHILL INDEX
   HX - HEAT INDEX
  VSB - VISIBILITY



USA.gov is the U.S. government's official web portal to all federal, state and local government web resources and services.